Fort Myers, FL

10:54 AM EST on November 21, 2019 (GMT -0500)
Page

Weather History for KFMY - October, 2019

Change the Weather History Date:

Tuesday, October 22, 2019

  Actual Average Record
Temperature  
Mean Temperature 84 °F 77 °F  
Max Temperature 91 °F 86 °F 93 °F (1990)
Min Temperature 77 °F 68 °F 51 °F (1913)
Degree Days  
Heating Degree Days 0 0  
Month to date heating degree days 0 0  
Since 1 July heating degree days 0 0  
Cooling Degree Days 19 12  
Month to date cooling degree days 392 306  
Year to date cooling degree days 3876 3552  
Growing Degree Days 33 (Base 50)    
Moisture  
Dew Point 74 °F    
Average Humidity 77    
Maximum Humidity 94    
Minimum Humidity 56    
Precipitation  
Precipitation 0.00 in 0.08 in 2.81 in (1937)
Month to date precipitation 4.21 2.22  
Year to date precipitation 53.29 51.60  
Sea Level Pressure  
Sea Level Pressure 30.00 in    
Wind  
Wind Speed 5 mph (West)    
Max Wind Speed 14 mph    
Max Gust Speed 23 mph    
Visibility 9 miles    
Events      
T = Trace of Precipitation, MM = Missing Value Source: NWS Daily Summary

Daily Weather History Graph

Daily Weather History Graph

Search for Another Location

Airport or City:

Astronomy

Oct. 22, 2019 Rise Set
Actual Time 7:30 AM EDT 6:52 PM EDT
Civil Twilight 7:06 AM EDT 7:16 PM EDT
Nautical Twilight 6:39 AM EDT 7:43 PM EDT
Astronomical Twilight 6:12 AM EDT 8:10 PM EDT
Moon 1:25 AM EDT (10/22) 3:18 PM EDT (10/22)
Length of Visible Light 12h 09m
Length of Day
11h 22m
Last Quarter, 37% of the Moon is Illuminated
Oct 22
Last Quarter
Oct 27
New
Nov 4
First Quarter
Nov 12
Full
Nov 19
Last Quarter

Hourly Weather History & Observations

Time (EDT) Temp. Heat Index Dew Point Humidity Pressure Visibility Wind Dir Wind Speed Gust Speed Precip Events Conditions
12:53 AM 80.1 °F 85.4 °F 75.9 °F 87% 30.01 in 9.0 mi Calm Calm - N/A   Clear
1:53 AM 79.0 °F - 75.0 °F 88% 30.01 in 8.0 mi Calm Calm - N/A   Clear
2:53 AM 79.0 °F - 75.0 °F 88% 30.01 in 7.0 mi Calm Calm - N/A   Clear
3:53 AM 79.0 °F - 75.0 °F 88% 30.00 in 7.0 mi Calm Calm - N/A   Clear
4:53 AM 78.1 °F - 75.0 °F 90% 30.00 in 7.0 mi Calm Calm - N/A   Clear
5:53 AM 77.0 °F - 73.9 °F 90% 30.01 in 6.0 mi Calm Calm - N/A   Clear
6:53 AM 78.1 °F - 75.0 °F 90% 30.02 in 5.0 mi Calm Calm - N/A   Clear
7:53 AM 77.0 °F - 75.0 °F 94% 30.02 in 5.0 mi Calm Calm - N/A   Clear
9:53 AM 84.0 °F 91.9 °F 75.0 °F 74% 30.03 in 10.0 mi SSE 8.1 mph - N/A   Clear
11:42 AM 87.1 °F 94.5 °F 73.0 °F 63% 30.01 in 10.0 mi WSW 5.8 mph - N/A   Mostly Cloudy
11:53 AM 87.1 °F 94.5 °F 73.0 °F 63% 30.01 in 10.0 mi North - - N/A   Scattered Clouds
12:53 PM 89.1 °F 97.0 °F 73.0 °F 59% 29.99 in 10.0 mi SW 8.1 mph - N/A   Clear
2:53 PM 89.1 °F 96.0 °F 72.0 °F 57% 29.94 in 10.0 mi West 10.4 mph - N/A   Clear
3:53 PM 89.1 °F 97.0 °F 73.0 °F 59% 29.94 in 10.0 mi SW 10.4 mph 21.9 mph N/A   Clear
4:53 PM 88.0 °F 96.5 °F 73.9 °F 63% 29.96 in 10.0 mi West 10.4 mph - N/A   Clear
5:53 PM 87.1 °F 95.4 °F 73.9 °F 65% 29.96 in 10.0 mi WNW 11.5 mph - N/A   Clear
6:53 PM 84.9 °F 92.1 °F 73.9 °F 69% 29.97 in 10.0 mi WNW 9.2 mph - N/A   Clear
7:53 PM 82.9 °F 90.2 °F 75.0 °F 77% 29.98 in 10.0 mi NW 8.1 mph - N/A   Clear
8:53 PM 82.9 °F 89.4 °F 73.9 °F 74% 29.99 in 10.0 mi WNW 5.8 mph - N/A   Clear
9:53 PM 81.0 °F 86.7 °F 75.0 °F 82% 30.02 in 10.0 mi NNW 4.6 mph - N/A   Clear
10:53 PM 81.0 °F 86.7 °F 75.0 °F 82% 30.02 in 10.0 mi Calm Calm - N/A   Clear
11:53 PM 81.0 °F 87.3 °F 75.9 °F 85% 30.02 in 10.0 mi North 3.5 mph - N/A   Clear